Orbital Elements at Epoch 2459200.5 (2020-Dec-17.0) TDB
Reference: JPL 18 (heliocentric ecliptic J2000)
Element | Value | Uncertainty (1-sigma) | Units |
e | .15811903969551 | 4.3283e-08 | |
a | 2.208633175555573 | 7.9199e-09 | au |
q | 1.859406218797081 | 9.3018e-08 | au |
i | 3.960963799428797 | 3.8164e-06 | deg |
node | 107.7779089780655 | 5.9358e-05 | deg |
peri | 262.3244429873124 | 6.0841e-05 | deg |
M | 44.34476494956471 | 1.2838e-05 | deg |
tp | 2459052.819324428675 (2020-Jul-22.31932443) | 4.2609e-05 | TDB |
period | 1198.902356707587 3.28 | 6.4487e-06 1.766e-08 | d yr |
n | .3002746620572406 | 1.6151e-09 | deg/d |
Q | 2.557860132314066 | 9.1722e-09 | au |
|
| | Orbit Determination Parameters
Additional Information
|